RH
77 74 72 46 39 38 47 41 50 49 49 61 86 71 55 47 55 54 56 54 49 48 54 56 75 74 64 55 64 62 69 78 88 56 66 68 78 84 81 84 81 80 84 84
90 81 72 60 40 40 39 64 62 40 42 69 72 60 60 55 55 58 59 55 51 49 52 50 59 64 54 60 62 68 70 73 75 39 55 80 82 85 80 75 83 91 94 79
91 84 75 66 45 38 41 60 73 65 68 67 57 54 52 56 54 55 54 50 51 54 58 57 53 60 57 66 58 54 62 77 57 42 32 67 92 91 85 81 99 90 86 68
98 87 78 66 53 36 38 76 66 64 77 57 53 52 52 53 54 54 53 54 57 58 56 61 68 61 60 66 56 73 69 88 87 79 72 70 65 62 81 95 78 76 71 83
97 93 87 71 58 39 44 62 64 71 73 60 46 51 54 45 42 54 55 60 45 60 59 54 49 61 62 65 75 79 84 85 94 92 73 80 86 77 71 64 71 80 72 69
93 96 96 85 68 45 48 62 62 63 72 61 58 52 43 44 43 46 44 54 52 64 61 55 50 52 52 55 79 85 90 97 89 91 69 71 64 61 70 77 72 62 74 53
92 91 91 89 80 67 49 56 59 74 76 71 63 50 48 46 47 43 41 54 54 46 49 50 55 62 65 69 72 73 93 89 83 95 74 61 37 49 55 64 65 62 59 51
93 94 93 88 86 80 70 56 56 72 80 74 67 61 59 52 47 53 48 49 50 50 51 56 61 62 70 78 78 83 77 78 84 92 98 59 38 49 58 62 37 51 57 51
92 92 92 89 88 83 78 70 58 59 84 82 54 57 49 59 60 61 50 53 55 50 59 57 61 67 49 83 96 81 77 75 78 93 93 75 40 54 49 46 42 22 50 48
92 94 96 91 88 85 90 86 76 61 79 79 60 66 64 54 59 65 55 53 61 56 66 71 78 65 54 61 90 95 93 91 93 85 94 76 52 47 44 44 42 28 40 42
92 93 98 99 91 88 95 89 92 72 77 77 64 55 53 55 58 66 63 70 78 75 74 72 68 71 61 63 65 86 84 91 92 91 96 90 51 57 72 50 42 36 40 43
90 94 94 89 100 99 100 98 95 94 81 85 72 68 66 55 53 57 60 67 69 66 66 70 67 68 70 60 70 67 77 72 79 74 67 46 51 53 48 44 46 44 46 43
88 85 84 76 81 100 100 100 98 96 95 91 93 93 74 77 72 64 67 69 57 68 61 65 70 81 70 78 81 64 62 55 60 58 49 49 43 46 46 46 47 46 45 46
67 62 60 69 94 98 99 99 99 98 99 100 92 78 77 71 70 72 59 59 61 64 72 85 96 98 73 90 74 66 54 60 66 70 56 58 61 56 52 50 51 54 52 50
58 61 79 86 87 88 90 92 91 97 97 98 94 85 79 71 64 68 75 69 68 77 83 94 98 97 80 78 81 78 63 62 72 72 51 62 57 56 53 54 58 53 56 57
58 74 86 91 88 86 88 99 97 88 92 100 100 80 85 83 78 73 76 75 74 77 82 85 86 74 74 97 96 68 63 55 53 58 50 56 58 57 54 56 56 57 61 61
48 54 61 64 76 91 95 92 91 97 100 100 99 99 86 80 77 83 84 76 81 85 88 97 88 81 79 99 87 64 60 58 55 52 59 66 56 60 57 60 59 58 58 57
42 42 43 54 77 96 97 81 90 99 99 100 100 97 98 79 95 96 90 94 92 92 92 97 99 89 91 98 75 66 60 63 65 62 60 64 63 64 61 57 62 66 57 52
41 37 35 61 90 100 88 90 90 100 88 100 99 98 95 84 93 92 97 93 99 90 98 98 97 96 97 83 78 73 66 62 65 68 68 62 59 63 63 61 56 58 46 43
50 41 94 98 93 100 90 100 99 97 99 100 99 91 97 94 95 98 97 98 96 99 92 95 98 89 70 64 59 63 60 57 61 62 58 60 62 61 59 56 53 56 56 52
57 94 99 96 95 100 100 97 100 99 100 99 98 90 84 92 96 97 93 98 98 99 89 98 97 93 84 67 64 66 61 58 56 55 55 57 62 65 65 60 54 57 56 56
94 98 98 99 99 100 100 97 97 99 95 99 99 97 95 95 89 97 99 97 97 97 94 97 97 82 70 67 60 62 59 57 58 53 56 57 59 60 64 65 60 59 54 57
62 87 99 100 96 99 97 96 98 99 96 96 99 99 98 99 99 99 99 98 95 91 98 92 87 71 71 70 66 64 61 60 64 66 61 60 64 66 70 66 61 61 64 64
98 99 98 98 97 89 90 93 91 92 97 96 95 97 99 99 99 98 98 90 96 97 99 93 82 76 70 70 67 70 67 70 76 77 74 74 71 68 68 66 64 68 69 70
98 99 94 97 86 96 97 97 99 94 97 98 99 99 99 98 98 98 97 97 96 93 88 88 83 74 66 73 74 72 76 82 83 77 82 80 75 76 76 71 63 70 76 80
99 98 93 89 100 98 99 96 96 99 97 99 99 98 98 96 97 97 96 96 93 85 89 90 89 80 80 76 67 69 73 75 75 76 79 79 77 78 75 68 70 76 81 86
98 98 95 94 96 88 88 96 96 91 93 87 94 96 92 97 100 100 96 94 82 82 89 93 87 73 61 67 82 77 74 71 70 73 75 73 65 67 78 82 71 74 78 81
Wind_Speed
21 22 24 23 15 5 1 3 3 7 4 4 2 3 3 2 2 1 2 2 2 3 3 2 2 3 7 5 5 2 2 3 4 6 2 1 3 5 5 3 4 4 1 8
22 22 23 25 17 9 2 2 1 4 2 3 2 0 2 1 2 1 1 2 3 2 3 0 3 3 2 6 5 5 5 0 4 4 3 3 4 4 3 3 2 7 5 7
22 22 23 24 19 10 3 3 3 4 5 1 5 3 2 2 1 1 1 1 2 1 2 4 2 3 2 6 4 4 5 3 6 6 5 4 4 5 9 6 3 4 11 14
21 21 21 22 21 11 3 4 1 2 3 4 3 2 3 3 2 1 2 1 4 4 2 1 4 3 1 1 4 3 3 4 4 9 16 13 16 15 11 16 13 8 3 8
19 21 21 20 21 9 7 3 3 2 1 2 2 3 3 3 2 4 2 3 1 5 5 7 6 5 3 5 1 6 1 3 2 6 6 7 14 17 18 20 20 22 24 29
16 18 21 22 22 9 6 3 2 3 2 1 2 2 3 3 2 4 4 6 3 4 10 6 6 6 2 4 8 7 5 2 3 6 4 12 7 7 16 6 4 20 14 15
14 14 15 17 19 17 7 4 2 3 1 1 3 2 4 4 4 2 1 4 5 2 2 1 1 2 2 5 4 3 5 3 2 5 8 3 2 4 7 14 7 18 10 14
13 12 12 12 12 14 12 6 2 2 2 1 2 3 4 3 2 3 3 4 2 1 3 2 5 2 1 1 2 3 1 4 2 2 3 10 3 1 4 6 6 9 19 17
11 8 9 9 9 9 8 7 5 3 3 4 2 2 2 2 2 4 2 1 2 2 2 1 2 3 2 1 1 4 3 2 3 1 2 5 1 2 2 2 4 2 8 8
9 9 7 5 6 6 5 3 2 2 1 3 4 4 3 5 2 2 1 2 1 1 2 2 4 3 3 3 5 5 3 3 9 8 4 10 9 5 2 3 4 5 3 7
11 11 11 9 5 4 3 4 4 2 2 4 9 6 5 2 3 3 4 1 1 2 3 3 3 3 3 1 4 6 8 8 5 5 4 9 7 2 4 5 5 4 10 15
12 13 15 15 10 7 5 5 6 7 5 4 9 19 22 22 10 4 4 2 4 4 2 2 1 3 2 4 4 2 4 7 6 12 8 3 4 5 6 2 10 16 14 14
14 15 14 12 10 8 9 7 7 3 2 5 3 7 16 20 26 23 4 2 6 4 4 3 2 5 3 5 6 5 5 5 3 1 10 13 13 10 8 12 10 9 11 13
13 13 11 9 7 8 9 12 11 8 3 3 4 6 7 8 17 24 33 7 4 4 2 3 3 3 5 3 5 5 4 7 6 6 15 12 14 13 11 6 8 10 10 12
11 11 11 9 8 8 11 15 21 20 6 3 4 7 16 17 15 20 23 20 6 2 3 3 4 3 1 3 2 8 7 10 6 8 13 8 10 7 11 14 8 11 10 13
10 10 10 11 11 8 6 4 8 23 25 3 3 3 4 3 6 11 11 11 3 3 3 3 3 3 4 4 4 3 9 13 15 13 13 9 9 9 5 7 12 10 8 9
10 9 11 11 12 12 6 3 1 1 14 2 4 3 0 3 5 3 2 5 2 2 2 3 3 3 5 3 10 2 6 9 12 15 5 6 5 4 8 8 10 14 16 15
11 11 10 12 11 12 15 24 22 11 2 3 3 3 2 5 1 2 2 2 2 3 3 2 3 1 3 6 7 10 13 5 7 8 5 5 8 7 6 9 9 7 8 8
11 12 13 11 5 5 3 8 10 16 12 3 3 3 3 3 1 1 1 2 3 3 4 3 4 4 7 8 9 7 6 4 7 7 6 4 3 6 7 5 6 6 11 11
9 8 3 2 3 5 6 2 3 4 3 3 3 2 4 4 3 3 1 3 3 3 5 3 4 4 4 13 14 7 3 2 1 2 3 3 4 5 7 7 8 8 10 12
3 4 2 2 4 3 3 3 4 3 3 3 2 9 10 4 4 4 4 3 2 2 3 5 3 4 5 4 2 5 6 5 6 5 5 5 6 7 7 11 11 15 17 14
3 2 3 2 1 2 4 4 3 4 4 3 3 3 2 2 2 3 4 4 3 6 4 3 3 5 3 4 5 5 5 5 6 7 6 9 10 13 12 12 15 18 21 22
3 2 1 2 3 6 7 6 3 3 3 3 3 2 2 1 3 3 3 5 5 4 3 4 5 3 3 6 4 5 5 7 7 8 11 12 14 20 18 17 20 23 20 21
3 4 5 5 5 6 5 4 4 2 2 3 2 1 3 2 2 2 4 3 3 3 3 6 3 5 6 5 5 4 4 7 8 10 16 14 15 19 21 24 24 20 20 25
4 4 6 9 3 2 2 0 0 3 2 2 1 2 2 3 4 4 3 3 4 5 5 3 3 4 4 3 3 6 7 6 7 13 11 17 20 19 20 22 25 26 25 24
5 6 6 4 1 2 2 4 3 3 3 1 1 3 2 4 3 3 5 2 5 3 2 2 2 1 4 8 10 10 14 13 14 18 16 21 20 19 20 22 24 27 24 24
5 4 4 3 1 5 4 4 4 7 4 4 3 5 10 0 2 3 3 4 4 4 4 3 5 10 12 9 6 13 16 14 18 20 22 25 26 25 20 14 26 27 28 30
Wind_Direction
23 22 19 19 18 28 69 96 41 352 12 48 40 69 136 172 173 121 109 106 111 161 175 194 184 213 211 170 148 102 188 145 269 221 15 180 165 183 159 139 219 220 191 272
20 20 19 17 20 27 65 82 237 358 19 83 49 37 58 56 106 265 143 154 179 172 185 342 207 219 242 170 153 163 177 308 332 347 13 24 230 197 170 110 112 201 160 260
18 16 16 16 18 23 69 78 35 344 49 50 113 133 128 129 29 125 163 150 83 96 208 220 230 243 190 179 190 175 149 182 203 210 205 151 211 190 192 172 185 190 229 276
11 14 15 15 16 25 79 31 71 179 348 7 66 75 162 144 186 152 157 288 215 184 233 253 246 230 175 159 221 104 147 250 215 260 263 251 255 246 205 209 211 210 282 238
8 10 13 21 15 27 67 107 127 31 90 328 40 353 211 192 191 162 211 191 184 189 223 201 215 168 209 206 137 158 116 268 335 281 267 246 255 244 230 232 233 246 260 277
8 10 14 19 25 32 80 76 98 108 314 76 106 224 180 229 181 208 196 188 163 212 243 229 229 209 191 196 162 181 165 194 0 268 307 301 280 238 200 196 208 221 232 238
5 9 18 20 29 41 72 76 95 79 224 169 208 213 205 224 223 251 195 159 159 216 122 105 77 100 185 168 219 143 145 163 201 284 325 316 224 187 186 206 230 210 252 262
0 4 11 21 26 32 52 56 75 106 283 218 288 234 231 289 267 235 222 219 199 114 54 348 327 343 327 76 35 201 149 150 270 282 275 295 292 99 136 175 289 217 229 255
347 355 359 6 16 22 35 46 44 88 107 244 202 192 191 244 258 327 231 101 132 84 90 107 253 262 314 207 83 32 104 73 174 146 269 265 16 357 203 181 285 42 203 241
328 337 330 332 350 355 6 356 14 95 135 250 157 197 184 164 167 220 248 183 146 13 137 200 200 253 164 225 187 169 163 208 222 229 260 280 258 239 18 342 281 351 205 271
312 319 326 317 264 296 313 290 275 233 220 260 194 210 186 161 181 176 181 45 346 78 164 198 224 222 231 255 177 188 181 169 192 183 224 270 179 131 155 256 297 281 300 297
299 306 310 312 300 265 260 237 244 242 220 262 254 254 253 241 218 167 212 214 167 199 163 201 193 236 207 200 257 172 248 194 183 190 221 261 205 262 290 255 279 292 296 291
281 285 293 294 283 289 273 272 245 211 273 272 250 233 255 239 237 235 204 240 201 194 205 171 203 229 161 207 225 218 241 171 233 169 256 257 272 277 276 288 278 277 281 287
286 289 286 278 268 274 262 261 263 229 277 262 287 258 243 245 229 218 213 213 125 111 142 212 199 214 191 234 249 213 205 150 200 258 276 287 270 271 267 282 285 288 295 300
290 290 289 275 255 278 278 271 259 245 227 264 273 293 263 239 218 217 219 221 210 174 176 208 220 221 175 232 276 238 197 230 221 247 266 246 270 295 312 315 306 311 310 309
290 289 284 277 259 275 260 287 257 238 232 269 274 269 242 200 207 218 219 204 206 204 186 206 219 214 184 231 252 240 200 218 236 256 274 290 283 281 285 317 313 307 299 293
292 287 285 280 272 258 208 234 351 30 199 269 287 267 98 160 136 154 171 192 198 212 229 220 210 193 202 247 252 268 257 251 275 275 299 281 273 291 301 292 300 305 289 281
295 298 293 282 276 266 255 254 261 244 241 249 249 257 293 169 169 169 201 157 159 209 236 209 197 179 202 253 253 243 253 272 281 285 282 240 280 297 293 300 292 291 297 309
293 298 297 287 235 226 223 255 250 235 214 225 208 206 248 144 139 116 173 239 234 211 218 211 174 189 216 230 248 221 202 204 281 308 286 272 276 293 301 304 313 306 317 318
291 295 244 260 205 262 272 244 193 215 219 241 210 191 241 159 170 174 176 191 237 249 221 152 225 250 235 244 243 208 189 220 265 240 343 292 292 306 311 289 287 264 278 295
204 210 228 284 289 281 226 230 206 181 239 211 216 210 232 193 181 181 210 195 205 252 244 197 242 255 238 268 222 187 170 168 210 223 253 265 256 275 286 303 300 300 299 301
201 250 243 226 247 235 234 224 217 205 226 200 202 192 230 191 164 183 185 207 181 244 146 223 259 250 217 164 139 119 153 198 240 239 253 276 281 280 280 286 292 297 302 307
257 252 267 170 209 228 214 218 235 211 195 185 181 196 198 177 209 220 188 220 227 117 184 231 229 263 201 190 145 127 202 266 273 268 270 279 282 290 274 274 276 285 291 294
203 166 229 217 224 222 201 189 199 253 112 164 164 228 200 190 207 240 238 230 141 210 222 235 256 214 203 191 130 147 234 252 261 264 271 272 276 277 265 271 283 282 290 296
197 196 221 224 234 271 264 175 229 206 167 144 160 240 207 219 235 215 233 218 245 210 226 239 266 284 181 186 208 243 252 258 256 261 263 271 272 276 277 277 292 288 287 286
199 203 234 234 145 267 228 239 259 169 166 183 236 257 232 242 220 260 221 252 228 259 195 257 257 232 240 263 276 273 265 257 263 267 265 262 266 265 270 286 285 282 281 279
204 227 220 194 161 202 205 169 223 169 177 229 215 229 224 344 219 266 204 222 237 222 236 221 221 257 273 260 238 256 257 259 269 270 266 258 266 278 280 279 281 279 276 274